| time (UTC) | temp C | wind direction | speed KPH | gust KPH | rain 1hr cm | rain 24hr cm | rain mn cm | humidity % | barometer mb |
| 20260906024752 | 20 | 2 | 0.0 | 0.0 | 0.00 | 0.76 | 0.76 | 99 | 1010.3 |
| 20260906024251 | 20 | 2 | 0.0 | 0.0 | 0.00 | 0.76 | 0.76 | 99 | 1010.0 |
| 20260906023747 | 20 | 2 | 0.0 | 0.0 | 0.00 | 0.76 | 0.76 | 99 | 1010.1 |
| 20260906023242 | 20 | 2 | 0.0 | 0.0 | 0.00 | 0.76 | 0.76 | 99 | 1010.2 |
| 20260906022738 | 20 | 2 | 0.0 | 0.0 | 0.00 | 0.76 | 0.76 | 99 | 1010.1 |
| 20260906022232 | 20 | 2 | 0.0 | 0.0 | 0.00 | 0.76 | 0.76 | 99 | 1010.0 |
| 20260906021729 | 20 | 2 | 0.0 | 0.0 | 0.00 | 0.76 | 0.76 | 99 | 1009.7 |
| 20260906021227 | 20 | 2 | 0.0 | 0.0 | 0.00 | 0.76 | 0.76 | 99 | 1010.0 |
| 20260906020722 | 20 | 2 | 0.0 | 0.0 | 0.00 | 0.76 | 0.76 | 99 | 1009.7 |
| 20260906020218 | 20 | 2 | 0.0 | 0.0 | 0.00 | 0.76 | 0.76 | 99 | 1009.6 |
| 20260906015717 | 20 | 2 | 0.0 | 0.0 | 0.00 | 0.76 | 0.76 | 99 | 1009.9 |
| 20260906015210 | 20 | 3 | 0.0 | 0.0 | 0.00 | 0.76 | 0.76 | 99 | 1009.6 |
| 20260906014710 | 20 | 3 | 0.0 | 0.0 | 0.00 | 0.76 | 0.76 | 99 | 1009.7 |
| 20260906014206 | 20 | 3 | 0.0 | 0.0 | 0.00 | 0.76 | 0.76 | 99 | 1009.6 |
| 20260906013656 | 20 | 3 | 0.0 | 0.0 | 0.00 | 0.76 | 0.76 | 99 | 1009.6 |
| 20260906013152 | 20 | 3 | 0.0 | 0.0 | 0.00 | 0.76 | 0.76 | 99 | 1009.4 |
| 20260906012651 | 20 | 3 | 0.0 | 0.0 | 0.00 | 0.76 | 0.76 | 99 | 1009.6 |
| 20260906012146 | 20 | 3 | 0.0 | 0.0 | 0.00 | 0.76 | 0.76 | 99 | 1009.4 |
| 20260906011642 | 20 | 3 | 0.0 | 0.0 | 0.00 | 0.76 | 0.76 | 99 | 1009.4 |
| 20260906011142 | 20 | 4 | 0.0 | 0.0 | 0.00 | 0.76 | 0.76 | 99 | 1009.4 |
| 20260906010637 | 20 | 3 | 0.0 | 0.0 | 0.00 | 0.76 | 0.76 | 99 | 1009.2 |
| 20260906010133 | 20 | 4 | 0.0 | 0.0 | 0.00 | 0.76 | 0.76 | 99 | 1009.3 |
| 20260906005632 | 20 | 4 | 0.0 | 0.0 | 0.00 | 0.76 | 0.76 | 99 | 1009.1 |
| 20260906005127 | 20 | 4 | 0.0 | 0.0 | 0.00 | 0.76 | 0.76 | 99 | 1009.0 |
| 20260906004626 | 20 | 4 | 0.0 | 0.0 | 0.00 | 0.76 | 0.76 | 99 | 1009.1 |
| 20260906004121 | 20 | 4 | 0.0 | 0.0 | 0.00 | 0.76 | 0.76 | 99 | 1008.9 |
| 20260906003616 | 20 | 4 | 0.0 | 0.0 | 0.00 | 0.76 | 0.76 | 99 | 1008.9 |
| 20260906003112 | 20 | 4 | 0.0 | 0.0 | 0.00 | 0.76 | 0.76 | 99 | 1009.0 |
| 20260906002607 | 20 | 4 | 0.0 | 0.0 | 0.00 | 0.76 | 0.76 | 99 | 1008.9 |
| 20260906002101 | 20 | 4 | 0.0 | 0.0 | 0.00 | 0.76 | 0.76 | 99 | 1008.8 |
| 20260906001556 | 20 | 4 | 0.0 | 0.0 | 0.00 | 0.76 | 0.76 | 99 | 1008.6 |
| 20260906001051 | 20 | 4 | 0.0 | 0.0 | 0.00 | 0.76 | 0.76 | 99 | 1008.9 |
| 20260906000548 | 20 | 4 | 0.0 | 0.0 | 0.00 | 0.76 | 0.76 | 99 | 1008.9 |
| 20260906000042 | 20 | 4 | 0.0 | 0.0 | 0.00 | 0.76 | 0.76 | 99 | 1008.8 |
| 20260905235536 | 20 | 4 | 0.0 | 0.0 | 0.00 | 0.76 | 0.76 | 99 | 1008.6 |
| 20260905235031 | 20 | 4 | 0.0 | 0.0 | 0.00 | 0.76 | 0.76 | 99 | 1008.6 |
| 20260905234527 | 21 | 4 | 0.0 | 0.0 | 0.00 | 0.76 | 0.76 | 99 | 1008.6 |
| 20260905234027 | 21 | 4 | 0.0 | 0.0 | 0.00 | 0.76 | 0.76 | 99 | 1008.6 |
| 20260905233522 | 21 | 4 | 0.0 | 0.0 | 0.00 | 0.76 | 0.76 | 99 | 1008.9 |
| 20260905233021 | 21 | 4 | 0.0 | 0.0 | 0.00 | 0.76 | 0.76 | 99 | 1008.9 |
| 20260905232517 | 21 | 4 | 0.0 | 0.0 | 0.00 | 0.76 | 0.76 | 99 | 1008.8 |
| 20260905232013 | 21 | 4 | 0.0 | 0.0 | 0.00 | 0.76 | 0.76 | 99 | 1008.9 |
| 20260905231507 | 21 | 4 | 0.0 | 0.0 | 0.00 | 0.76 | 0.76 | 99 | 1008.7 |
| 20260905231004 | 21 | 4 | 0.0 | 0.0 | 0.00 | 0.76 | 0.76 | 99 | 1008.8 |
| 20260905230502 | 21 | 4 | 0.0 | 0.0 | 0.00 | 0.76 | 0.76 | 99 | 1008.6 |
| 20260905230001 | 21 | 4 | 0.0 | 0.0 | 0.00 | 0.76 | 0.76 | 99 | 1008.6 |
| 20260905225455 | 21 | 4 | 0.0 | 0.0 | 0.00 | 0.76 | 0.76 | 99 | 1008.5 |
| 20260905224950 | 21 | 4 | 0.0 | 0.0 | 0.00 | 0.76 | 0.76 | 99 | 1008.5 |
| 20260905224446 | 22 | 4 | 0.0 | 0.0 | 0.00 | 0.76 | 0.76 | 99 | 1008.7 |
| 20260905223945 | 22 | 4 | 0.0 | 0.0 | 0.00 | 0.76 | 0.76 | 99 | 1008.6 |
| 20260905223443 | 22 | 4 | 0.0 | 0.0 | 0.00 | 0.76 | 0.76 | 99 | 1008.7 |
| 20260905222943 | 21 | 4 | 0.0 | 0.0 | 0.00 | 0.76 | 0.76 | 99 | 1008.6 |
| 20260905222438 | 22 | 4 | 0.0 | 0.0 | 0.00 | 0.76 | 0.76 | 99 | 1008.6 |
| 20260905221934 | 22 | 4 | 0.0 | 0.0 | 0.00 | 0.76 | 0.76 | 99 | 1008.6 |
| 20260905221430 | 22 | 4 | 0.0 | 0.0 | 0.00 | 0.76 | 0.76 | 99 | 1008.4 |
| 20260905220926 | 22 | 4 | 0.0 | 0.0 | 0.00 | 0.76 | 0.76 | 99 | 1008.5 |
| 20260905220422 | 22 | 4 | 0.0 | 0.0 | 0.00 | 0.76 | 0.76 | 99 | 1008.5 |
| 20260905215921 | 22 | 4 | 0.0 | 0.0 | 0.00 | 0.76 | 0.76 | 99 | 1008.2 |
| 20260905215416 | 21 | 4 | 0.0 | 0.0 | 0.00 | 0.76 | 0.76 | 97 | 1008.6 |
| 20260905214913 | 22 | 4 | 0.0 | 0.0 | 0.00 | 0.76 | 0.76 | 99 | 1008.3 |
| 20260905214408 | 21 | 4 | 0.0 | 0.0 | 0.00 | 0.76 | 0.76 | 99 | 1008.2 |
| 20260905213902 | 22 | 5 | 0.0 | 1.6 | 0.00 | 0.76 | 0.76 | 99 | 1008.3 |
| 20260905213359 | 21 | 0 | 0.0 | 0.0 | 0.00 | 0.76 | 0.76 | 99 | 1008.4 |
| 20260905212854 | 21 | 0 | 0.0 | 0.0 | 0.00 | 0.76 | 0.76 | 99 | 1008.1 |
| 20260905212354 | 21 | 359 | 0.0 | 0.0 | 0.00 | 0.76 | 0.76 | 99 | 1008.1 |
| 20260905211848 | 21 | 0 | 0.0 | 0.0 | 0.00 | 0.76 | 0.76 | 99 | 1008.0 |
| 20260905211343 | 21 | 342 | 1.6 | 1.6 | 0.00 | 0.76 | 0.76 | 99 | 1008.1 |
| 20260905210839 | 21 | 342 | 0.0 | 0.0 | 0.00 | 0.76 | 0.76 | 99 | 1008.1 |
| 20260905210334 | 21 | 342 | 0.0 | 0.0 | 0.00 | 0.76 | 0.76 | 99 | 1007.6 |
| 20260905205832 | 22 | 355 | 0.0 | 0.0 | 0.00 | 0.76 | 0.76 | 98 | 1007.6 |
| 20260905205327 | 22 | 352 | 0.0 | 0.0 | 0.48 | 0.76 | 0.76 | 97 | 1007.6 |
| 20260905204826 | 22 | 352 | 0.0 | 0.0 | 0.61 | 0.76 | 0.76 | 97 | 1007.8 |
| 20260905204322 | 22 | 354 | 1.6 | 1.6 | 0.30 | 0.71 | 0.71 | 96 | 1007.9 |
| 20260905203821 | 22 | 6 | 0.0 | 0.0 | 0.00 | 0.66 | 0.66 | 96 | 1007.9 |
| 20260905203317 | 23 | 355 | 0.0 | 0.0 | 0.00 | 0.66 | 0.66 | 94 | 1008.1 |
| 20260905202812 | 23 | 359 | 0.0 | 0.0 | 0.00 | 0.66 | 0.66 | 92 | 1008.0 |
| 20260905202307 | 24 | 316 | 3.2 | 3.2 | 0.00 | 0.66 | 0.66 | 88 | 1007.9 |
| 20260905201757 | 25 | 12 | 1.6 | 3.2 | 0.00 | 0.66 | 0.66 | 84 | 1007.8 |
| 20260905201252 | 26 | 356 | 0.0 | 0.0 | 0.00 | 0.66 | 0.66 | 84 | 1008.0 |
| 20260905200747 | 25 | 347 | 0.0 | 0.0 | 0.00 | 0.66 | 0.66 | 88 | 1008.1 |
| 20260905200243 | 26 | 309 | 3.2 | 3.2 | 0.00 | 0.66 | 0.66 | 86 | 1007.9 |
| 20260905195741 | 26 | 321 | 3.2 | 3.2 | 0.00 | 0.66 | 0.66 | 81 | 1007.8 |
| 20260905195236 | 26 | 334 | 0.0 | 0.0 | 0.00 | 0.66 | 0.66 | 86 | 1008.0 |
| 20260905194732 | 26 | 334 | 1.6 | 1.6 | 0.00 | 0.66 | 0.66 | 80 | 1008.0 |
| 20260905194231 | 27 | 17 | 0.0 | 1.6 | 0.00 | 0.66 | 0.66 | 81 | 1007.8 |
| 20260905193725 | 27 | 355 | 0.0 | 0.0 | 0.00 | 0.66 | 0.66 | 82 | 1007.8 |
| 20260905193220 | 27 | 340 | 1.6 | 1.6 | 0.00 | 0.66 | 0.66 | 80 | 1007.6 |
| 20260905192716 | 26 | 325 | 1.6 | 1.6 | 0.00 | 0.66 | 0.66 | 87 | 1007.6 |
| 20260905192213 | 25 | 1 | 0.0 | 0.0 | 0.00 | 0.66 | 0.66 | 88 | 1008.1 |
| 20260905191712 | 25 | 343 | 0.0 | 0.0 | 0.00 | 0.66 | 0.66 | 84 | 1008.1 |
| 20260905191210 | 27 | 14 | 0.0 | 1.6 | 0.00 | 0.66 | 0.66 | 78 | 1008.2 |
| 20260905190709 | 26 | 6 | 0.0 | 0.0 | 0.00 | 0.66 | 0.66 | 85 | 1008.0 |
| 20260905190208 | 25 | 330 | 0.0 | 1.6 | 0.00 | 0.66 | 0.66 | 90 | 1008.1 |
| 20260905185706 | 25 | 329 | 1.6 | 1.6 | 0.00 | 0.66 | 0.66 | 87 | 1008.4 |
| 20260905185201 | 26 | 342 | 0.0 | 1.6 | 0.00 | 0.66 | 0.66 | 84 | 1008.5 |
| 20260905184700 | 26 | 359 | 0.0 | 0.0 | 0.00 | 0.66 | 0.66 | 82 | 1008.4 |
| 20260905184159 | 26 | 353 | 0.0 | 1.6 | 0.00 | 0.66 | 0.66 | 84 | 1008.5 |
| 20260905183654 | 25 | 344 | 0.0 | 0.0 | 0.00 | 0.66 | 0.66 | 86 | 1008.6 |
| 20260905183149 | 25 | 25 | 0.0 | 1.6 | 0.00 | 0.66 | 0.66 | 85 | 1008.6 |
| 20260905182648 | 25 | 18 | 0.0 | 0.0 | 0.00 | 0.66 | 0.66 | 92 | 1008.6 |
| 20260905182143 | 25 | 12 | 0.0 | 0.0 | 0.00 | 0.66 | 0.66 | 89 | 1008.7 |
| 20260905181638 | 25 | 25 | 1.6 | 1.6 | 0.00 | 0.66 | 0.66 | 86 | 1008.9 |
| 20260905181137 | 24 | 344 | 0.0 | 0.0 | 0.00 | 0.66 | 0.66 | 93 | 1008.9 |
| 20260905180632 | 25 | 345 | 1.6 | 1.6 | 0.00 | 0.66 | 0.66 | 92 | 1009.1 |
| 20260905180127 | 25 | 15 | 0.0 | 0.0 | 0.00 | 0.66 | 0.66 | 94 | 1009.0 |
| 20260905175626 | 24 | 5 | 0.0 | 0.0 | 0.00 | 0.66 | 0.66 | 93 | 1008.9 |
| 20260905175122 | 24 | 309 | 1.6 | 1.6 | 0.00 | 0.66 | 0.66 | 96 | 1009.1 |
| 20260905174617 | 24 | 351 | 0.0 | 0.0 | 0.00 | 0.66 | 0.66 | 94 | 1009.2 |
| 20260905174112 | 23 | 331 | 0.0 | 0.0 | 0.00 | 0.66 | 0.66 | 96 | 1008.9 |
| 20260905173608 | 23 | 313 | 1.6 | 1.6 | 0.00 | 0.66 | 0.66 | 97 | 1009.1 |
| 20260905173104 | 23 | 341 | 0.0 | 1.6 | 0.00 | 0.66 | 0.66 | 98 | 1009.0 |
| 20260905172603 | 22 | 339 | 0.0 | 1.6 | 0.00 | 0.66 | 0.66 | 98 | 1009.2 |
| 20260905172057 | 22 | 192 | 3.2 | 3.2 | 0.00 | 0.66 | 0.66 | 99 | 1009.2 |
| 20260905171554 | 22 | 334 | 0.0 | 0.0 | 0.18 | 0.66 | 0.66 | 99 | 1009.0 |
| 20260905171050 | 21 | 12 | 0.0 | 0.0 | 0.48 | 0.66 | 0.66 | 99 | 1009.4 |
| 20260905170546 | 21 | 8 | 0.0 | 1.6 | 0.30 | 0.64 | 0.64 | 99 | 1009.3 |
| 20260905170041 | 21 | 11 | 0.0 | 0.0 | 0.00 | 0.58 | 0.58 | 99 | 1009.6 |
| 20260905165536 | 21 | 11 | 0.0 | 0.0 | 0.00 | 0.58 | 0.58 | 99 | 1009.6 |
| 20260905165032 | 21 | 10 | 0.0 | 0.0 | 2.77 | 0.58 | 0.58 | 99 | 1009.6 |
| 20260905164526 | 21 | 337 | 0.0 | 1.6 | 3.17 | 0.58 | 0.58 | 99 | 1009.8 |
| 20260905164020 | 21 | 354 | 0.0 | 0.0 | 0.79 | 0.18 | 0.18 | 99 | 1009.8 |
| 20260905163511 | 21 | 330 | 3.2 | 4.8 | 0.00 | 0.05 | 0.05 | 99 | 1009.7 |
| 20260905163007 | 22 | 351 | 0.0 | 1.6 | 0.00 | 0.05 | 0.05 | 99 | 1010.1 |
| 20260905162502 | 22 | 355 | 0.0 | 1.6 | 0.00 | 0.05 | 0.05 | 99 | 1010.0 |
| 20260905161956 | 22 | 355 | 0.0 | 0.0 | 0.00 | 0.05 | 0.05 | 99 | 1009.7 |
| 20260905161455 | 22 | 349 | 0.0 | 0.0 | 0.18 | 0.05 | 0.05 | 99 | 1009.9 |
| 20260905160954 | 22 | 351 | 0.0 | 0.0 | 0.30 | 0.05 | 0.05 | 99 | 1009.8 |
| 20260905160448 | 23 | 351 | 0.0 | 0.0 | 0.13 | 0.03 | 0.03 | 98 | 1009.8 |
| 20260905155947 | 23 | 349 | 0.0 | 0.0 | 0.00 | 0.00 | 0.00 | 97 | 1009.7 |
| 20260905155442 | 23 | 347 | 0.0 | 0.0 | 0.00 | 0.00 | 0.00 | 94 | 1009.6 |
| 20260905154941 | 23 | 13 | 0.0 | 0.0 | 0.00 | 0.00 | 0.00 | 93 | 1009.7 |
| 20260905154436 | 23 | 13 | 0.0 | 0.0 | 0.00 | 0.00 | 0.00 | 93 | 1009.8 |
| 20260905153932 | 23 | 13 | 0.0 | 0.0 | 0.00 | 0.00 | 0.00 | 93 | 1009.9 |
| 20260905153428 | 23 | 13 | 0.0 | 0.0 | 0.00 | 0.00 | 0.00 | 95 | 1009.7 |
| 20260905152927 | 22 | 13 | 0.0 | 0.0 | 0.00 | 0.00 | 0.00 | 96 | 1010.0 |
| 20260905152427 | 22 | 13 | 0.0 | 0.0 | 0.00 | 0.00 | 0.00 | 99 | 1009.9 |
| 20260905151922 | 22 | 13 | 0.0 | 0.0 | 0.00 | 0.00 | 0.00 | 99 | 1010.0 |
| 20260905151418 | 22 | 12 | 0.0 | 0.0 | 0.00 | 0.00 | 0.00 | 99 | 1010.3 |
| 20260905150919 | 22 | 13 | 0.0 | 1.6 | 0.00 | 0.00 | 0.00 | 99 | 1010.0 |
| 20260905150419 | 22 | 13 | 0.0 | 0.0 | 0.00 | 0.00 | 0.00 | 99 | 1010.0 |
| 20260905145915 | 22 | 13 | 0.0 | 0.0 | 0.00 | 0.00 | 0.00 | 99 | 1010.2 |
| 20260905145410 | 22 | 12 | 0.0 | 0.0 | 0.00 | 0.00 | 0.00 | 99 | 1010.3 |
| 20260905144909 | 21 | 12 | 0.0 | 0.0 | 0.00 | 0.00 | 0.00 | 99 | 1010.3 |
| 20260905144405 | 21 | 13 | 0.0 | 0.0 | 0.00 | 0.00 | 0.00 | 99 | 1010.4 |
| 20260905143903 | 21 | 13 | 0.0 | 0.0 | 0.00 | 0.00 | 0.00 | 99 | 1010.3 |
| 20260905143358 | 21 | 13 | 0.0 | 0.0 | 0.00 | 0.00 | 0.00 | 99 | 1010.4 |
| 20260905142857 | 21 | 13 | 0.0 | 0.0 | 0.00 | 0.00 | 0.00 | 99 | 1010.0 |
| 20260905142355 | 21 | 13 | 0.0 | 0.0 | 0.00 | 0.00 | 0.00 | 99 | 1010.0 |
| 20260905141852 | 21 | 13 | 0.0 | 0.0 | 0.00 | 0.00 | 0.00 | 99 | 1010.0 |
| 20260905141341 | 21 | 13 | 0.0 | 0.0 | 0.00 | 0.00 | 0.00 | 99 | 1009.9 |
| 20260905140837 | 21 | 13 | 0.0 | 0.0 | 0.00 | 0.00 | 0.00 | 99 | 1010.1 |
| 20260905140331 | 21 | 13 | 0.0 | 0.0 | 0.00 | 0.00 | 0.00 | 99 | 1010.3 |
| 20260905135830 | 21 | 13 | 0.0 | 0.0 | 0.00 | 0.00 | 0.00 | 99 | 1010.3 |
| 20260905135326 | 21 | 13 | 0.0 | 0.0 | 0.00 | 0.00 | 0.00 | 99 | 1010.1 |
| 20260905134821 | 21 | 13 | 0.0 | 0.0 | 0.00 | 0.00 | 0.00 | 99 | 1010.0 |
| 20260905134314 | 21 | 14 | 0.0 | 0.0 | 0.00 | 0.00 | 0.00 | 99 | 1010.1 |
| 20260905133809 | 21 | 12 | 0.0 | 1.6 | 0.00 | 0.00 | 0.00 | 99 | 1009.9 |
| 20260905133305 | 21 | 10 | 0.0 | 0.0 | 0.00 | 0.00 | 0.00 | 99 | 1009.8 |
| 20260905132803 | 21 | 10 | 0.0 | 0.0 | 0.00 | 0.00 | 0.00 | 99 | 1009.8 |
| 20260905132259 | 21 | 10 | 0.0 | 0.0 | 0.00 | 0.00 | 0.00 | 99 | 1009.8 |
| 20260905131754 | 21 | 10 | 0.0 | 0.0 | 0.00 | 0.00 | 0.00 | 99 | 1009.4 |
| 20260905131249 | 21 | 10 | 0.0 | 0.0 | 0.00 | 0.00 | 0.00 | 99 | 1009.2 |
| 20260905130744 | 21 | 10 | 0.0 | 0.0 | 0.00 | 0.00 | 0.00 | 99 | 1009.4 |
| 20260905130243 | 20 | 10 | 0.0 | 0.0 | 0.00 | 0.00 | 0.00 | 99 | 1009.4 |
| 20260905125738 | 20 | 10 | 0.0 | 0.0 | 0.00 | 0.00 | 0.00 | 99 | 1009.5 |
| 20260905125233 | 20 | 10 | 0.0 | 0.0 | 0.00 | 0.00 | 0.00 | 99 | 1009.5 |
| 20260905124730 | 20 | 10 | 0.0 | 0.0 | 0.00 | 0.00 | 0.00 | 99 | 1009.8 |
| 20260905124225 | 20 | 10 | 0.0 | 0.0 | 0.00 | 0.00 | 0.00 | 99 | 1009.8 |
| 20260905123720 | 20 | 10 | 0.0 | 0.0 | 0.00 | 0.00 | 0.00 | 99 | 1009.8 |
| 20260905123218 | 20 | 10 | 0.0 | 0.0 | 0.00 | 0.00 | 0.00 | 99 | 1009.6 |
| 20260905122716 | 20 | 10 | 0.0 | 0.0 | 0.00 | 0.00 | 0.00 | 99 | 1009.6 |
| 20260905122211 | 20 | 10 | 1.6 | 1.6 | 0.00 | 0.00 | 0.00 | 99 | 1009.7 |
| 20260905121706 | 20 | 12 | 0.0 | 1.6 | 0.00 | 0.00 | 0.00 | 99 | 1009.5 |
| 20260905121203 | 19 | 341 | 0.0 | 0.0 | 0.00 | 0.00 | 0.00 | 99 | 1009.5 |
| 20260905120701 | 19 | 3 | 0.0 | 0.0 | 0.00 | 0.00 | 0.00 | 99 | 1009.3 |
| 20260905120155 | 19 | 3 | 0.0 | 0.0 | 0.00 | 0.00 | 0.00 | 99 | 1009.2 |
| 20260905115650 | 18 | 3 | 0.0 | 0.0 | 0.00 | 0.00 | 0.00 | 99 | 1009.2 |
| 20260905115145 | 18 | 2 | 0.0 | 0.0 | 0.00 | 0.00 | 0.00 | 99 | 1009.0 |
| 20260905114645 | 18 | 344 | 0.0 | 0.0 | 0.00 | 0.00 | 0.00 | 99 | 1009.2 |
| 20260905114143 | 18 | 344 | 0.0 | 0.0 | 0.00 | 0.00 | 0.00 | 99 | 1009.2 |
| 20260905113643 | 18 | 328 | 1.6 | 1.6 | 0.00 | 0.00 | 0.00 | 99 | 1009.1 |
| 20260905113139 | 18 | 339 | 0.0 | 0.0 | 0.00 | 0.00 | 0.00 | 99 | 1009.0 |
| 20260905112633 | 18 | 339 | 0.0 | 0.0 | 0.00 | 0.00 | 0.00 | 99 | 1009.0 |
| 20260905112130 | 18 | 339 | 0.0 | 0.0 | 0.00 | 0.00 | 0.00 | 99 | 1008.8 |
| 20260905111629 | 18 | 339 | 0.0 | 0.0 | 0.00 | 0.00 | 0.00 | 99 | 1009.0 |
| 20260905111128 | 18 | 339 | 0.0 | 1.6 | 0.00 | 0.00 | 0.00 | 99 | 1009.0 |
| 20260905110628 | 18 | 339 | 0.0 | 0.0 | 0.00 | 0.00 | 0.00 | 99 | 1008.8 |
| 20260905110123 | 18 | 339 | 0.0 | 0.0 | 0.00 | 0.00 | 0.00 | 99 | 1008.8 |
| 20260905105618 | 18 | 339 | 0.0 | 0.0 | 0.00 | 0.00 | 0.00 | 99 | 1008.8 |
| 20260905105117 | 18 | 339 | 0.0 | 0.0 | 0.00 | 0.00 | 0.00 | 99 | 1008.8 |
| 20260905104612 | 18 | 339 | 0.0 | 0.0 | 0.00 | 0.00 | 0.00 | 99 | 1008.8 |
| 20260905104107 | 18 | 321 | 0.0 | 0.0 | 0.00 | 0.00 | 0.00 | 99 | 1008.8 |
| 20260905103603 | 18 | 345 | 0.0 | 0.0 | 0.00 | 0.00 | 0.00 | 99 | 1008.7 |
| 20260905103059 | 18 | 12 | 0.0 | 0.0 | 0.00 | 0.00 | 0.00 | 99 | 1008.9 |
| 20260905102554 | 18 | 338 | 0.0 | 0.0 | 0.00 | 0.00 | 0.00 | 99 | 1008.8 |
| 20260905102051 | 18 | 1 | 0.0 | 0.0 | 0.00 | 0.00 | 0.00 | 99 | 1008.7 |
| 20260905101548 | 18 | 5 | 0.0 | 1.6 | 0.00 | 0.00 | 0.00 | 99 | 1008.6 |
| 20260905101046 | 18 | 351 | 0.0 | 0.0 | 0.00 | 0.00 | 0.00 | 99 | 1008.4 |
| 20260905100538 | 18 | 358 | 0.0 | 1.6 | 0.00 | 0.00 | 0.00 | 99 | 1008.3 |
| 20260905100037 | 18 | 0 | 0.0 | 0.0 | 0.00 | 0.00 | 0.00 | 99 | 1008.1 |
| 20260905095532 | 18 | 12 | 1.6 | 1.6 | 0.00 | 0.00 | 0.00 | 99 | 1008.2 |
| 20260905095027 | 18 | 349 | 0.0 | 0.0 | 0.00 | 0.00 | 0.00 | 99 | 1008.2 |
| 20260905094522 | 18 | 350 | 0.0 | 0.0 | 0.00 | 0.00 | 0.00 | 99 | 1008.3 |
| 20260905094021 | 18 | 344 | 0.0 | 0.0 | 0.00 | 0.00 | 0.00 | 99 | 1008.3 |
| 20260905093516 | 18 | 344 | 0.0 | 0.0 | 0.00 | 0.00 | 0.00 | 99 | 1008.2 |
| 20260905093012 | 18 | 356 | 0.0 | 0.0 | 0.00 | 0.00 | 0.00 | 99 | 1008.4 |
| 20260905092512 | 18 | 359 | 0.0 | 0.0 | 0.00 | 0.00 | 0.00 | 99 | 1008.5 |
| 20260905092008 | 18 | 359 | 0.0 | 0.0 | 0.00 | 0.00 | 0.00 | 99 | 1008.4 |
| 20260905091502 | 18 | 4 | 0.0 | 0.0 | 0.00 | 0.00 | 0.00 | 99 | 1008.2 |
| 20260905091001 | 18 | 345 | 0.0 | 0.0 | 0.00 | 0.00 | 0.00 | 99 | 1008.4 |
| 20260905090456 | 17 | 346 | 0.0 | 0.0 | 0.00 | 0.00 | 0.00 | 99 | 1008.2 |
| 20260905085955 | 17 | 346 | 0.0 | 0.0 | 0.00 | 0.00 | 0.00 | 99 | 1008.1 |
| 20260905085455 | 17 | 345 | 0.0 | 0.0 | 0.00 | 0.00 | 0.00 | 99 | 1008.2 |
| 20260905084951 | 17 | 344 | 0.0 | 0.0 | 0.00 | 0.00 | 0.00 | 99 | 1008.1 |
| 20260905084450 | 17 | 343 | 0.0 | 0.0 | 0.00 | 0.00 | 0.00 | 99 | 1008.3 |
| 20260905083946 | 17 | 339 | 0.0 | 0.0 | 0.00 | 0.00 | 0.00 | 99 | 1008.3 |
| 20260905083441 | 17 | 339 | 0.0 | 0.0 | 0.00 | 0.00 | 0.00 | 99 | 1008.4 |
| 20260905082937 | 17 | 339 | 0.0 | 0.0 | 0.00 | 0.00 | 0.00 | 99 | 1008.4 |
| 20260905082433 | 17 | 339 | 0.0 | 0.0 | 0.00 | 0.00 | 0.00 | 99 | 1008.3 |
| 20260905081927 | 17 | 339 | 0.0 | 0.0 | 0.00 | 0.00 | 0.00 | 99 | 1008.4 |
| 20260905081422 | 17 | 339 | 0.0 | 0.0 | 0.00 | 0.00 | 0.00 | 99 | 1008.6 |
| 20260905080921 | 17 | 339 | 0.0 | 0.0 | 0.00 | 0.00 | 0.00 | 99 | 1008.6 |
| 20260905080416 | 17 | 339 | 0.0 | 0.0 | 0.00 | 0.00 | 0.00 | 99 | 1008.5 |
| 20260905075915 | 17 | 339 | 0.0 | 0.0 | 0.00 | 0.00 | 0.00 | 99 | 1008.7 |
| 20260905075409 | 17 | 339 | 0.0 | 0.0 | 0.00 | 0.00 | 0.00 | 99 | 1008.8 |
| 20260905074908 | 17 | 339 | 0.0 | 0.0 | 0.00 | 0.00 | 0.00 | 99 | 1008.5 |
| 20260905074404 | 17 | 339 | 0.0 | 0.0 | 0.00 | 0.00 | 0.00 | 99 | 1008.7 |
| 20260905073900 | 17 | 339 | 0.0 | 0.0 | 0.00 | 0.00 | 0.00 | 99 | 1008.5 |
| 20260905073355 | 17 | 339 | 0.0 | 0.0 | 0.00 | 0.00 | 0.00 | 99 | 1008.7 |
| 20260905072850 | 17 | 339 | 0.0 | 0.0 | 0.00 | 0.00 | 0.00 | 99 | 1008.6 |
| 20260905072345 | 17 | 339 | 0.0 | 0.0 | 0.00 | 0.00 | 0.00 | 99 | 1008.7 |
| 20260905071841 | 17 | 339 | 0.0 | 0.0 | 0.00 | 0.00 | 0.00 | 99 | 1008.8 |
| 20260905071337 | 17 | 339 | 0.0 | 0.0 | 0.00 | 0.00 | 0.00 | 99 | 1009.0 |
| 20260905070831 | 17 | 339 | 0.0 | 0.0 | 0.00 | 0.00 | 0.00 | 99 | 1009.0 |
| 20260905070328 | 17 | 339 | 0.0 | 0.0 | 0.00 | 0.00 | 0.00 | 99 | 1009.3 |
| 20260905065826 | 17 | 339 | 0.0 | 0.0 | 0.00 | 0.00 | 0.00 | 99 | 1009.0 |
| 20260905065325 | 17 | 339 | 0.0 | 0.0 | 0.00 | 0.00 | 0.00 | 99 | 1009.0 |
| 20260905064820 | 17 | 339 | 0.0 | 0.0 | 0.00 | 0.00 | 0.00 | 99 | 1009.3 |
| 20260905064316 | 17 | 339 | 0.0 | 0.0 | 0.00 | 0.00 | 0.00 | 99 | 1009.3 |
| 20260905063815 | 18 | 339 | 0.0 | 0.0 | 0.00 | 0.00 | 0.00 | 99 | 1009.6 |
| 20260905063311 | 18 | 339 | 0.0 | 0.0 | 0.00 | 0.00 | 0.00 | 99 | 1009.5 |
| 20260905062807 | 18 | 339 | 0.0 | 0.0 | 0.00 | 0.00 | 0.00 | 99 | 1009.7 |
| 20260905062307 | 18 | 339 | 0.0 | 0.0 | 0.00 | 0.00 | 0.00 | 99 | 1009.6 |
| 20260905061801 | 18 | 339 | 0.0 | 0.0 | 0.00 | 0.00 | 0.00 | 99 | 1009.6 |
| 20260905061256 | 18 | 339 | 0.0 | 0.0 | 0.00 | 0.00 | 0.00 | 99 | 1009.9 |
| 20260905060750 | 18 | 339 | 0.0 | 0.0 | 0.00 | 0.00 | 0.00 | 99 | 1009.8 |
| 20260905060247 | 18 | 339 | 0.0 | 0.0 | 0.00 | 0.00 | 0.00 | 99 | 1010.0 |
| 20260905055745 | 18 | 339 | 0.0 | 0.0 | 0.00 | 0.00 | 0.00 | 99 | 1010.0 |
| 20260905055241 | 18 | 339 | 0.0 | 0.0 | 0.00 | 0.00 | 0.00 | 99 | 1010.1 |
| 20260905054735 | 18 | 339 | 0.0 | 0.0 | 0.00 | 0.00 | 0.00 | 99 | 1010.0 |
| 20260905054232 | 18 | 339 | 0.0 | 0.0 | 0.00 | 0.00 | 0.00 | 99 | 1010.2 |
| 20260905053731 | 18 | 339 | 0.0 | 0.0 | 0.00 | 0.00 | 0.00 | 99 | 1010.4 |
| 20260905053227 | 18 | 339 | 0.0 | 0.0 | 0.00 | 0.00 | 0.00 | 99 | 1010.8 |
| 20260905052720 | 18 | 339 | 0.0 | 0.0 | 0.00 | 0.00 | 0.00 | 99 | 1010.3 |
| 20260905052215 | 18 | 339 | 0.0 | 0.0 | 0.00 | 0.00 | 0.00 | 99 | 1010.4 |
| 20260905051715 | 18 | 339 | 0.0 | 0.0 | 0.00 | 0.00 | 0.00 | 99 | 1010.3 |
| 20260905051212 | 18 | 339 | 0.0 | 0.0 | 0.00 | 0.00 | 0.00 | 99 | 1010.3 |
| 20260905050708 | 18 | 339 | 0.0 | 0.0 | 0.00 | 0.00 | 0.00 | 99 | 1010.5 |
| 20260905050204 | 18 | 339 | 0.0 | 0.0 | 0.00 | 0.00 | 0.00 | 99 | 1010.5 |
| 20260905045703 | 18 | 339 | 0.0 | 0.0 | 0.00 | 0.00 | 0.00 | 99 | 1010.9 |
| 20260905045159 | 18 | 339 | 0.0 | 0.0 | 0.00 | 0.00 | 0.00 | 99 | 1011.0 |
| 20260905044654 | 18 | 339 | 0.0 | 0.0 | 0.00 | 0.00 | 0.00 | 99 | 1010.8 |
| 20260905044149 | 18 | 339 | 0.0 | 0.0 | 0.00 | 0.00 | 0.00 | 99 | 1010.8 |
| 20260905043648 | 18 | 339 | 0.0 | 0.0 | 0.00 | 0.00 | 0.00 | 99 | 1010.8 |
| 20260905043143 | 18 | 339 | 0.0 | 0.0 | 0.00 | 0.00 | 0.00 | 99 | 1010.6 |
| 20260905042642 | 18 | 339 | 0.0 | 0.0 | 0.00 | 0.00 | 0.00 | 99 | 1010.8 |
| 20260905042137 | 18 | 339 | 0.0 | 0.0 | 0.00 | 0.00 | 0.00 | 99 | 1010.9 |
| 20260905041633 | 19 | 339 | 0.0 | 0.0 | 0.00 | 0.00 | 0.00 | 99 | 1010.9 |
| 20260905041129 | 19 | 339 | 0.0 | 0.0 | 0.00 | 0.00 | 0.00 | 99 | 1010.8 |
| 20260905040628 | 19 | 339 | 0.0 | 0.0 | 0.00 | 0.00 | 0.00 | 99 | 1011.0 |
| 20260905040121 | 19 | 339 | 0.0 | 0.0 | 0.00 | 0.00 | 0.00 | 99 | 1010.9 |
| 20260905035617 | 19 | 339 | 0.0 | 0.0 | 0.00 | 2.11 | 2.11 | 99 | 1010.9 |
| 20260905035113 | 19 | 339 | 0.0 | 0.0 | 0.00 | 2.11 | 2.11 | 99 | 1010.9 |
| 20260905034608 | 19 | 339 | 0.0 | 0.0 | 0.00 | 2.11 | 2.11 | 99 | 1010.9 |
| 20260905034102 | 19 | 339 | 0.0 | 0.0 | 0.00 | 2.11 | 2.11 | 99 | 1010.9 |
| 20260905033601 | 19 | 339 | 0.0 | 0.0 | 0.00 | 2.11 | 2.11 | 99 | 1010.9 |
| 20260905033058 | 19 | 339 | 0.0 | 0.0 | 0.00 | 2.11 | 2.11 | 99 | 1011.0 |
| 20260905032557 | 20 | 339 | 0.0 | 0.0 | 0.00 | 2.11 | 2.11 | 99 | 1011.0 |
| 20260905032052 | 20 | 339 | 0.0 | 0.0 | 0.00 | 2.11 | 2.11 | 99 | 1010.8 |
| 20260905031548 | 20 | 339 | 0.0 | 0.0 | 0.00 | 2.11 | 2.11 | 99 | 1011.1 |
| 20260905031048 | 20 | 339 | 0.0 | 0.0 | 0.00 | 2.11 | 2.11 | 99 | 1010.9 |
| 20260905030543 | 20 | 339 | 0.0 | 0.0 | 0.00 | 2.11 | 2.11 | 99 | 1010.6 |
| 20260905030043 | 20 | 339 | 0.0 | 0.0 | 0.00 | 2.11 | 2.11 | 99 | 1010.8 |
| 20260905025538 | 20 | 339 | 0.0 | 0.0 | 0.00 | 2.11 | 2.11 | 99 | 1010.9 |
| 20260905025035 | 20 | 339 | 0.0 | 0.0 | 0.00 | 2.11 | 2.11 | 99 | 1010.6 |